www.pogodaiklimat.ru

Погода и климат >> Архив погоды >> Ирак >> Haditha


ПОГОДА в Haditha

  • Прогноз погоды в Haditha
  • Монитор погоды в Haditha
  • Климат города

АРХИВ ПОГОДЫ в Haditha

Время (UTC), дата Ветер
(напр.,м/с)
 
Видим.   Явления Облачность Т
(С)
Тd
(С)
f
(%)
Тe
(С)
Тes
(С)
Комфортность P
(гПа)
Po
(гПа)
Тmin
(С)
Tmax
(С)
R
(мм)
R24
(мм)
S
(см)
00 12.12 В 1 10 км ясно +11.0 +9.0 87 +11 +11 1021.1 1021.0
03 12.12 Ю 3 10 км ясно +10.6 +9.4 92 +8 +8 1021.2 1021.0
06 12.12 Ю 2 5000 м дымка ясно +11.4 +9.8 90 +10 +12 1021.1 1021.0 +9.8
09 12.12 ЮВ 2 10 км ясно +17.2 +12.5 74 +18 +24 1020.8 1021.0
12 12.12 Ю 2 10 км ясно +19.6 +13.3 67 +22 +24 комфорт 1020.7 1021.0
15 12.12 штиль 0 10 км ясно +16.2 +12.2 77 +16 +16 1016.8 1017.0
18 12.12 штиль 0 10 км ясно +14.4 +11.8 84 +14 +14 1018.9 1019.0 +20.0
21 12.12 Ю 1 10 км ясно +13.2 +10.9 86 +13 +13 1021.0 1021.0
03 13.12 штиль 0 2000 м дымка ясно +10.0 +8.7 92 +9 +9 1019.1 1019.0
06 13.12 Ю 2 10 км 8/8 1200 м
[Sc]
+12.5 +8.4 76 +12 +12 1021.1 1021.0 +9.6
09 13.12 З 3 10 км 5/0
[Ac und]
+17.2 +11.1 67 +17 +21 1020.8 1021.0
12 13.12 С 2 10 км 4/4 1200 м
[Cu hum]
+17.8 +10.7 63 +18 +20 1020.8 1021.0
18 13.12 штиль 0 10 км 8/0
[Ac und]
+31.4 +9.9 27 +31 +31 жарко 1025.0 1025.0 +18.0
21 13.12 З 2 10 км ясно +11.0 +9.0 87 +10 +10 1025.1 1025.0
00 14.12 З 3 10 км ясно +8.3 +6.8 90 +6 +6 1027.3 1027.0
03 14.12 штиль 0 <100 м туман ясно +8.0 +7.1 94 +7 +7 1027.3 1027.0
06 14.12 штиль 0 10 км 5/0
[Ac und]
+9.4 +6.3 81 +9 +10 1027.2 1027.0 +7.0
09 14.12 З 1 10 км 8/0
[Ac und]
+13.8 +9.0 73 +14 +17 1027.0 1027.0
12 14.12 З 1 10 км ясно +17.4 +9.8 61 +18 +21 1026.9 1027.0
15 14.12 З 1 10 км 3/0
[Ac und]
+14.2 +9.9 75 +15 +15 1027.0 1027.0
18 14.12 З 1 10 км ясно +12.0 +8.8 81 +12 +12 1027.1 1027.0 +17.6
21 14.12 З 1 10 км ясно +9.4 +7.2 86 +9 +9 1027.2 1027.0
00 15.12 З 2 10 км ясно +7.2 +5.8 91 +5 +5 1027.3 1027.0
03 15.12 З 1 10 км ясно +5.8 +4.4 91 +5 +5 1027.0 1027.0
06 15.12 ЮЗ 2 10 км 3/3 1200 м
[Sc]
+7.7 +5.2 84 +6 +7 1029.4 1029.0 +4.9
12 15.12 СЗ 2 10 км ясно +16.9 +8.5 58 +17 +20 1027.0 1027.0
15 15.12 СЗ 2 10 км ясно +14.2 +9.7 74 +14 +14 1027.0 1027.0
18 15.12 З 4 10 км ясно +10.9 +8.2 83 +8 +8 1027.2 1027.0 +17.2
21 15.12 З 2 10 км ясно +7.7 +6.4 91 +6 +6 1027.3 1027.0
06 16.12 штиль 0 10 км 3/0
[Ci fib]
+7.2 +4.9 85 +6 +9 1027.3 1027.0 +4.5
09 16.12 СВ 1 10 км 3/0
[Ci fib]
+14.4 +7.9 65 +15 +22 1027.0 1027.0
12 16.12 штиль 0 10 км 3/0
[Ci fib]
+16.2 +9.2 63 +16 +19 1024.9 1025.0
15 16.12 штиль 0 10 км 3/0
[Ci fib]
+14.6 +9.5 71 +14 +14 1025.0 1025.0
18 16.12 СВ 1 10 км 3/0
[Ac lent]
+12.6 +9.4 81 +13 +13 1025.1 1025.0 +16.5
21 16.12 штиль 0 10 км слабый дождь 5/0
[Ac lent]
+11.8 +8.5 80 +11 +11 1025.1 1025.0
06 17.12 В 2 5000 м дождь 10/10 900 м
[Cu Sc]
+10.6 +10.6 100 +9 +9 1021.2 1021.0 +9.4 7
09 17.12 СВ 3 10 км 10/0
[Ac As]
+11.6 +10.4 92 +10 +11 1019.0 1019.0
12 17.12 В 3 10 км 10/10 900 м
[Cu Sc]
+13.0 +11.1 88 +12 +12 1018.9 1019.0
15 17.12 СВ 4 10 км 10/10 900 м
[Cu Sc]
+11.0 +9.0 87 +9 +9 1017.0 1017.0
18 17.12 СВ 2 10 км 8/0
[Ac und]
+9.4 +9.4 100 +8 +8 1017.1 1017.0 +13.4 2
21 17.12 штиль 0 10 км 8/0
[Ac und]
+8.0 +7.1 94 +7 +7 1017.2 1017.0
03 18.12 штиль 0 10 км 10/0
[Ac As]
+6.0 +6.0 100 +5 +5 1019.3 1019.0
06 18.12 З 2 9000 м дымка 1/0
[Ac lent]
+11.2 +10.0 92 +10 +12 1021.1 1021.0 +6.1
12 18.12 С 2 10 км 8/8 1200 м
[Cu med, cong]
+13.8 +9.9 77 +13 +14 1023.0 1023.0
15 18.12 С 2 10 км 1/1 1200 м
[Cu hum]
+12.2 +9.8 85 +11 +11 1025.1 1025.0

 

Местоположение метеостанции Haditha (Ирак): широта 34.07 долгота 42.37 высота над уровнем моря 140 м.

В архиве по умолчанию представлена погода в Haditha за последнюю неделю. Архивные данные за месяц целиком и за предыдущие месяцы, начиная с января 2011 года, Вы можете получить, выбрав интересующий диапазон дат из раскрывающегося списка и нажав кнопку "Ввод!".


*Определитесь, кто Вы:
робот инопланетянин человек

Внимание! Время в таблицах - всемирное. Для получения местного времени необходимо прибавить поправку, которая в Haditha равна 3 ч.

Смотрите также архив погоды в соседних городах и на ближайших метеорологических станциях:

Погода в Ana (Ирак) (59 км)
Погода в Ramadi (Ирак) (112 км)
Погода в Al Qaim (Ирак) (129 км)
Погода в Tikrit (Ирак) (134 км)
Погода в Heet (Ирак) (137 км)
Погода в Abu Kamal (Сирия) (139 км)
Погода в Baiji (Ирак) (140 км)
Погода в Baghdad (Ирак) (196 км)
Погода в Al-Khalis (Ирак) (201 км)
Погода в Makhmoor (Ирак) (218 км)

Пояснения к столбцам:

Ветер - указаны скорость ветра в м/с - средняя за 10 мин, порывы в срок и между сроками (в фигурных скобках) и направление, откуда дует ветер: С - северный, СВ - северо-восточный, В - восточный, ЮВ - юго-восточный, Ю - южный, ЮЗ - юго-западный, З - западный, СЗ - северо-западный.
Видимость - горизонтальная дальность видимости в метрах или километрах. При видимости от 1 до 10 км при отсутствии осадков обычно наблюдается дымка, при ухудшении видимости до 1 км и менее - туман. В сухую погоду видимость может ухудшаться дымом, пылью или мглою.
Явления - указаны атмосферные явления, наблюдавшиеся в срок или в последний час перед сроком; фигурными скобками обозначены явления, наблюдавшиеся между сроками (за 1-3 часа до срока); квадратными скобками обозначены град или гололедные отложения с указанием их диаметра в мм.
Облачность - указаны через наклонную черту общая и нижняя облачность в баллах и высота нижней границы облаков в метрах; квадратными скобками обозначены формы облаков: Ci - перистые, Cs - перисто-слоистые, Cc - перисто-кучевые, Ac - высококучевые, As - высокослоистые, Sc - слоисто-кучевые, Ns - слоисто-дождевые, Cu - кучевые, Cb - кучево-дождевые. Подробнее классификацию облаков см. в Атласе облаков (PDF).
T - Температура воздуха - температура, измеренная на высоте 2 м над землей.
Td - Температура точки росы - температура, при понижении до которой содержащийся в воздухе водяной пар достигнет насыщения.
f - Относительная влажность воздуха - влажноcть воздуха, измеренная на высоте 2 м над землей.
Te - Эффективная температура - температура, которую ощущает одетый по сезону человек в тени. Характеристика душности погоды. При расчете учитывается влияние влажности воздуха и скорости ветра на теплоощущения человека.
Tes - Эффективная температура на солнце - температура, которую ощущает человек, с поправкой на солнечный нагрев. Характеристика знойности погоды. Зависит от высоты солнца над горизонтом, облачности и скорости ветра. Ночью, в пасмурную погоду, а также при ветре 12 м/с и более поправка равна нулю.
P - Атмосферное давление - приведенное к уровню моря атмосферное давление.
Po - Атмосферное давление - измеренное на уровне метеостанции атмосферное давление.
Tmin - Минимальная температура - минимум температуры воздуха на высоте 2 м над землей.
Tmax - Максимальная температура - максимум температуры воздуха на высоте 2 м над землей.
R - Количество осадков - Количество выпавших осадков за период времени, мм. При наведении курсора мыши на число - период времени, за который выпало указанное количество осадков.
R24 - Количество осадков - Количество выпавших осадков за 24 часа, мм.
S - Снежный покров - Высота снежного покрова, см. При наведении курсора мыши на число - состояние снежного покрова и степень покрытия местности в баллах.